DateTimeUTC,F1_A11,F1_S11,BsB_S11,BsG_S11,BsR_S11,BbsB_S11,BbsG_S11,BbsR_S11,BaB_A11,BaG_A11,BaR_A11,Tu_S11,T_S11,Uu_S11,U_S11,P_S11,T1_A11
2021-11-23T14:00:00Z,00000200,21000000,,,,,,,0000.09,-000.12,-000.02,18.7,25.6,,00.0,0641.5,30.9
2021-11-23T14:01:00Z,00000200,21000000,,,,,,,-000.01,0000.03,-000.06,18.7,25.5,,00.0,0641.5,30.8
2021-11-23T14:02:00Z,00000200,21000000,,,,,,,-000.02,0000.26,-000.07,18.7,25.6,,00.0,0641.6,30.8
2021-11-23T14:03:00Z,00000200,61000000,,,,,,,0000.12,-000.24,0000.06,18.7,25.6,,00.0,0641.6,30.8
2021-11-23T14:04:00Z,00000200,41000000,0000.14,-000.11,0000.06,0000.46,-000.14,0000.21,0000.36,0000.28,0000.08,18.8,25.4,,00.0,0642.5,30.8
2021-11-23T14:05:00Z,00000200,01000000,-000.80,-000.08,-000.05,-000.29,-000.08,-000.22,-000.08,0000.02,0000.17,18.8,25.4,,00.0,0642.6,30.8
2021-11-23T14:06:00Z,00000200,01000000,-000.34,0000.06,-000.25,-000.18,-000.01,-000.54,0000.04,-000.10,0000.14,18.8,25.4,,00.0,0642.6,30.8
2021-11-23T14:07:00Z,00000200,01000000,0000.32,0000.18,0000.09,0000.01,-000.02,-000.10,0000.25,0000.35,-000.03,18.9,25.4,,00.0,0642.6,30.8
2021-11-23T14:08:00Z,00000200,01000000,0000.21,0000.33,0000.07,-000.60,0000.36,0000.07,0000.26,0000.18,-000.10,18.9,25.4,,00.0,0642.7,30.8
2021-11-23T14:09:00Z,00000200,01000000,0000.03,0000.21,0000.27,0000.38,0000.09,-000.05,-000.29,-000.11,0000.20,18.9,25.4,,00.0,0642.7,30.8
2021-11-23T14:10:00Z,00000200,01000000,0000.03,-000.12,-000.03,-000.21,-000.14,-000.24,0000.09,0000.01,-000.17,19.0,25.4,,00.0,0642.7,30.8
2021-11-23T14:11:00Z,00000200,01000000,-000.69,0000.33,0000.09,-000.27,0000.14,0000.06,0000.14,0000.13,0000.18,19.0,25.4,,00.0,0642.7,30.8
2021-11-23T14:12:00Z,00000200,01000000,-000.27,0000.25,0000.28,-000.46,-000.05,0000.03,0000.01,0000.01,-000.17,19.0,25.4,,00.0,0642.7,30.8
2021-11-23T14:13:00Z,00000200,01000000,-000.04,0000.02,0000.33,-000.05,0000.15,0000.22,-000.18,-000.05,0000.27,19.1,25.4,,00.0,0642.7,30.9
2021-11-23T14:14:00Z,00000200,01000000,0000.36,0000.40,0000.13,-000.34,-000.02,0000.28,-000.09,-000.63,-000.17,19.1,25.5,,00.0,0642.7,30.9
2021-11-23T14:15:00Z,00000200,01000000,0000.58,0000.39,-000.17,-000.36,0000.17,-000.31,-000.02,0000.47,-000.13,19.0,25.4,,00.0,0642.7,30.9
2021-11-23T14:16:00Z,00000200,01000000,-000.24,0000.04,0000.29,-000.10,0000.07,-000.02,-000.40,-000.50,-000.11,19.0,25.5,,00.0,0642.7,30.8
2021-11-23T14:17:00Z,00000200,01000000,-000.57,-000.07,0000.20,-000.74,-000.16,-000.02,0000.21,0000.27,-000.01,18.9,25.4,,00.0,0642.7,30.8
2021-11-23T14:18:00Z,00000200,01000000,-000.11,0000.09,0000.30,-000.07,0000.10,-000.06,0000.61,0000.14,0000.30,18.8,25.3,,00.0,0642.7,30.8
2021-11-23T14:19:00Z,00000200,01000000,0000.05,0000.41,0000.09,-000.55,0000.19,0000.20,-000.12,0000.24,0000.00,18.8,25.3,,00.0,0642.7,30.8
2021-11-23T14:20:00Z,00000200,01000000,0000.51,0000.37,0000.05,-000.66,0000.14,-000.14,0000.02,-000.03,-000.09,18.8,25.3,,00.0,0642.7,30.8
2021-11-23T14:21:00Z,00000200,01000000,-000.51,0000.41,-000.07,-000.11,-000.21,0000.01,0000.03,0000.01,-000.05,18.8,25.3,,00.0,0642.7,30.8
2021-11-23T14:22:00Z,00000200,01000000,0000.60,-000.04,0000.31,-000.26,-000.30,0000.37,0000.16,0000.29,0000.27,18.8,25.3,,00.0,0642.7,30.8
2021-11-23T14:23:00Z,00000200,01000000,0000.08,0000.07,0000.01,-000.19,-000.08,-000.39,-000.07,0000.23,0000.14,18.9,25.3,,00.0,0642.7,30.8
2021-11-23T14:24:00Z,00000200,01000000,0000.92,-000.14,0000.28,-000.59,0000.22,-000.07,0000.12,-000.30,-000.06,18.9,25.3,,00.0,0642.7,30.8
2021-11-23T14:25:00Z,00000200,01000000,0000.54,0000.13,-000.35,0000.14,-000.04,-000.06,0000.05,-000.04,-000.15,18.9,25.3,,00.0,0642.7,30.8
2021-11-23T14:26:00Z,00000200,01000000,0000.52,0000.43,0000.12,-000.63,0000.15,-000.11,-000.22,0000.29,0000.24,18.9,25.3,,00.0,0642.8,30.8
2021-11-23T14:27:00Z,00000200,01000000,0000.57,0000.41,0000.13,-000.40,0000.22,-000.30,0000.51,-000.23,0000.09,19.0,25.4,,00.0,0642.7,30.8
2021-11-23T14:28:00Z,00000200,01000000,0000.53,0000.00,0000.15,-000.09,0000.27,-000.07,-000.30,0000.17,-000.31,19.0,25.4,,00.0,0642.8,30.9
2021-11-23T14:29:00Z,00000200,01000000,0000.08,-000.00,-000.16,0000.24,0000.15,-000.20,-000.13,-000.13,0000.22,19.0,25.4,,00.0,0642.8,30.8
2021-11-23T14:30:00Z,00000200,01000000,0000.06,0000.50,-000.01,-000.60,-000.11,0000.03,0000.14,0000.08,0000.01,18.9,25.4,,00.0,0642.7,30.8
2021-11-23T14:31:00Z,00000200,01000000,0000.24,0000.07,0000.17,0000.01,0000.33,-000.08,0000.01,-000.24,-000.10,18.9,25.4,,00.0,0642.7,30.8
2021-11-23T14:32:00Z,00000200,01000000,0000.25,-000.06,0000.19,0000.40,-000.08,-000.18,0000.22,0000.20,-000.18,18.8,25.3,,00.0,0642.7,30.8
2021-11-23T14:33:00Z,00000200,01000000,-000.28,-000.01,-000.09,0000.65,-000.09,0000.02,-000.07,0000.13,0000.42,18.7,25.2,,00.0,0642.7,30.8
2021-11-23T14:34:00Z,00000200,01000000,-000.33,-000.11,0000.07,0000.05,-000.16,-000.34,0000.30,0000.12,-000.00,18.7,25.2,,00.0,0642.7,30.8
2021-11-23T14:35:00Z,00000200,01000000,0000.77,0000.32,0000.11,0000.14,-000.25,-000.31,0000.16,0000.16,-000.03,18.7,25.2,,00.0,0642.7,30.8
2021-11-23T14:36:00Z,00000200,01000000,-000.20,-000.03,-000.09,-000.34,0000.01,0000.16,0000.05,-000.03,0000.11,18.7,25.2,,00.0,0642.7,30.8
2021-11-23T14:37:00Z,00000200,01000000,0000.29,0000.27,-000.16,-000.48,-000.12,0000.03,-000.00,0000.15,0000.15,18.7,25.2,,00.0,0642.7,30.8
2021-11-23T14:38:00Z,00000200,01000000,0000.42,0000.07,0000.12,-000.23,-000.12,-000.04,0000.19,0000.29,0000.01,18.8,25.2,,00.0,0642.7,30.8
2021-11-23T14:39:00Z,00000200,01000000,0000.37,0000.01,0000.03,-000.02,0000.20,0000.23,-000.13,-000.40,0000.03,18.8,25.2,,00.0,0642.7,30.8
2021-11-23T14:40:00Z,00000200,01000000,0000.24,0000.20,-000.16,0000.18,0000.24,-000.15,0000.51,0000.50,0000.29,18.8,25.2,,00.0,0642.8,30.8
2021-11-23T14:41:00Z,00000200,01000000,-000.15,0000.14,-000.15,-000.10,0000.10,-000.29,-000.22,0000.12,0000.08,18.8,25.2,,00.0,0642.8,30.8
2021-11-23T14:42:00Z,00000200,01000000,-000.02,0000.09,0000.05,-000.31,0000.07,-000.30,0000.13,-000.09,-000.04,18.9,25.2,,00.0,0642.8,30.8
2021-11-23T14:43:00Z,00000200,01000000,0000.18,0000.48,-000.09,0000.33,0000.16,0000.39,-000.09,-000.13,0000.02,18.9,25.2,,00.0,0642.8,30.8
2021-11-23T14:44:00Z,00000200,01000000,-000.31,-000.06,-000.09,-000.15,-000.22,-000.15,-000.04,0000.09,0000.18,18.8,25.2,,00.0,0642.8,30.8
2021-11-23T14:45:00Z,00000200,01000000,0000.11,0000.05,0000.11,-000.39,-000.29,-000.30,0000.17,-000.20,-000.18,18.7,25.2,,00.0,0642.8,30.8
2021-11-23T14:46:00Z,00000200,01000000,0000.86,0000.24,0000.05,-000.03,0000.06,-000.12,0000.09,0000.31,-000.32,18.6,25.2,,00.0,0642.8,30.7
2021-11-23T14:47:00Z,00000200,01000000,0000.21,0000.18,0000.25,-000.35,0000.29,0000.04,0000.07,0000.19,0000.47,18.5,25.1,,00.0,0642.8,30.7
2021-11-23T14:48:00Z,00000200,01000000,0000.68,0000.24,0000.20,-000.17,-000.00,-000.13,0000.37,0000.11,0000.14,18.4,25.0,,00.0,0642.8,30.7
2021-11-23T14:49:00Z,00000200,01000000,0000.24,0000.26,0000.03,-000.68,-000.23,-000.13,0000.28,0000.09,0000.06,18.4,25.0,,00.0,0642.8,30.7
2021-11-23T14:50:00Z,00000200,01000000,0000.11,0000.01,0000.06,-000.59,0000.16,0000.21,-000.28,0000.18,0000.16,18.4,25.0,,00.0,0642.8,30.7
2021-11-23T14:51:00Z,00000200,01000000,0000.30,0000.50,-000.29,-000.38,-000.08,0000.11,0000.45,0000.03,0000.01,18.4,25.0,,00.0,0642.8,30.7
2021-11-23T14:52:00Z,00000200,01000000,0000.00,0000.15,0000.05,-000.73,0000.07,0000.00,-000.09,0000.36,0000.27,18.5,25.0,,00.0,0642.9,30.8
2021-11-23T14:53:00Z,00000200,01000000,-000.01,0000.01,0000.25,-000.18,0000.14,0000.01,-000.09,-000.38,-000.08,18.5,25.0,,00.0,0642.9,30.7
2021-11-23T14:54:00Z,00000200,01000000,-000.16,0000.20,0000.28,-000.24,-000.02,-000.07,0000.39,0000.48,0000.06,18.5,25.0,,00.0,0642.9,30.8
2021-11-23T14:55:00Z,00000200,01000000,0000.25,0000.36,0000.09,-000.43,-000.03,-000.13,-000.04,0000.12,0000.06,18.6,25.0,,00.0,0642.9,30.8
2021-11-23T14:56:00Z,00000200,01000000,0000.28,0000.00,-000.25,-000.01,0000.22,-000.16,-000.10,0000.49,0000.23,18.6,25.0,,00.0,0643.0,30.8
2021-11-23T14:57:00Z,00000200,41000000,,,,,,,0000.36,-000.25,-000.04,18.7,25.1,,00.0,0642.9,30.8
2021-11-23T14:58:00Z,00000200,61000000,,,,,,,0000.10,0000.11,-000.29,18.3,25.2,,00.0,0642.1,30.8
2021-11-23T14:59:00Z,00000200,21000000,,,,,,,-000.06,-000.33,0000.33,18.3,25.3,,00.0,0642.1,30.8
